Temp
4 3 3 3 2 2 1 1 1 2 1 1 2 2 2 1 1 0 -0 -1 -2 -2 -3 -3 -4 -5 -5 -5 -5 -5 -5 -5 -8 -7 -7 -7 -6 -6
4 3 3 2 2 1 0 1 1 1 1 1 1 1 1 1 1 -0 -0 -1 -2 -3 -3 -4 -5 -5 -5 -6 -6 -6 -6 -6 -7 -8 -8 -7 -7 -7
2 2 2 1 1 1 0 0 1 1 0 0 0 0 1 0 0 -0 -1 -1 -2 -3 -3 -4 -4 -5 -5 -6 -6 -7 -7 -7 -7 -9 -8 -8 -8 -7
1 1 2 1 1 -0 -0 0 -0 -0 -1 -0 -0 -0 0 -0 -0 -1 -1 -1 -2 -2 -3 -4 -4 -5 -5 -6 -6 -7 -7 -7 -7 -8 -9 -9 -9 -8
2 1 1 0 -0 -0 -0 -0 -1 -1 -0 -1 -0 -0 -1 -1 -1 -1 -1 -2 -2 -3 -3 -4 -4 -5 -5 -6 -6 -6 -7 -7 -7 -8 -8 -8 -8 -9
1 0 0 -0 -0 -0 -1 -1 -1 -1 -1 -1 -1 -1 -1 -1 -1 -1 -1 -2 -3 -3 -4 -4 -4 -5 -5 -6 -6 -6 -6 -7 -7 -7 -8 -8 -8 -8
0 -0 -1 -0 -0 -0 -1 -1 -1 -1 -1 -1 -1 -1 -2 -2 -2 -2 -2 -3 -4 -4 -4 -4 -5 -5 -6 -6 -6 -6 -6 -7 -7 -8 -8 -8 -8 -8
-0 -1 -1 -1 -1 -1 -1 -1 -1 -1 -1 -1 -2 -2 -2 -2 -2 -3 -3 -4 -4 -4 -5 -5 -5 -6 -6 -6 -7 -7 -7 -7 -8 -8 -8 -8 -8 -8
-1 -2 -2 -1 -1 -1 -1 -1 -1 -1 -1 -2 -2 -2 -2 -2 -3 -4 -4 -5 -5 -5 -5 -6 -6 -6 -7 -7 -7 -7 -7 -8 -8 -8 -8 -9 -8 -8
-2 -2 -2 -2 -2 -2 -2 -2 -2 -2 -2 -2 -2 -3 -3 -3 -3 -3 -4 -5 -6 -6 -6 -6 -6 -7 -7 -7 -7 -8 -8 -8 -8 -8 -9 -9 -9 -8
-1 -2 -2 -2 -2 -3 -3 -3 -3 -3 -3 -3 -3 -3 -3 -4 -4 -5 -5 -5 -6 -5 -6 -7 -7 -7 -7 -7 -8 -8 -8 -8 -8 -9 -9 -9 -9 -8
-2 -2 -2 -3 -3 -3 -4 -5 -5 -4 -5 -4 -4 -4 -4 -4 -4 -5 -5 -6 -6 -7 -5 -8 -7 -7 -8 -8 -8 -8 -8 -9 -9 -9 -9 -9 -8 -8
-3 -3 -3 -4 -5 -5 -5 -6 -6 -6 -6 -6 -5 -5 -5 -5 -5 -5 -5 -6 -6 -7 -6 -8 -8 -8 -8 -8 -8 -9 -9 -9 -9 -9 -9 -8 -8 -8
-5 -5 -5 -5 -6 -6 -6 -7 -7 -8 -8 -8 -8 -7 -7 -6 -5 -5 -6 -6 -6 -6 -7 -8 -8 -8 -9 -9 -9 -9 -9 -9 -9 -9 -8 -8 -8 -8
-6 -6 -6 -7 -7 -7 -8 -8 -8 -8 -8 -8 -8 -8 -8 -7 -6 -6 -6 -6 -7 -7 -7 -8 -8 -8 -9 -9 -9 -10 -10 -9 -9 -9 -9 -8 -8 -7
-7 -7 -8 -8 -10 -9 -9 -9 -9 -9 -9 -8 -7 -7 -7 -7 -6 -6 -6 -7 -7 -8 -8 -8 -8 -8 -9 -9 -9 -9 -9 -10 -9 -9 -9 -8 -8 -7
-8 -8 -9 -11 -11 -11 -10 -11 -11 -10 -10 -8 -8 -7 -8 -7 -6 -6 -7 -7 -7 -7 -8 -8 -8 -9 -9 -9 -9 -9 -9 -9 -9 -9 -9 -8 -8 -8
-9 -11 -12 -12 -12 -12 -13 -13 -12 -12 -11 -10 -8 -8 -7 -7 -6 -7 -7 -7 -7 -8 -8 -9 -8 -9 -9 -9 -9 -9 -9 -9 -9 -10 -10 -9 -7 -8
-12 -13 -13 -13 -13 -14 -14 -14 -14 -14 -12 -11 -10 -7 -7 -7 -7 -7 -7 -8 -8 -8 -8 -9 -9 -9 -9 -9 -9 -9 -9 -9 -10 -10 -10 -10 -9 -8
-13 -14 -14 -14 -15 -15 -15 -15 -15 -14 -12 -11 -10 -7 -7 -7 -7 -7 -7 -8 -8 -8 -8 -9 -9 -8 -9 -9 -9 -9 -9 -9 -9 -10 -10 -8 -9 -8
-14 -15 -15 -15 -16 -16 -16 -16 -16 -15 -13 -12 -11 -9 -7 -7 -7 -8 -8 -8 -8 -8 -8 -9 -8 -8 -9 -9 -9 -9 -9 -9 -9 -9 -9 -9 -8 -8
-16 -16 -16 -16 -17 -17 -17 -17 -17 -15 -14 -13 -11 -11 -9 -8 -8 -8 -8 -8 -8 -8 -8 -9 -9 -9 -9 -9 -9 -10 -9 -9 -9 -9 -9 -9 -9 -9
-17 -17 -17 -17 -18 -18 -18 -17 -18 -16 -16 -15 -13 -12 -11 -9 -8 -8 -8 -8 -8 -8 -9 -9 -9 -9 -9 -10 -10 -10 -9 -9 -9 -9 -9 -9 -9 -9
Height
1529 1530 1531 1533 1533 1533 1535 1535 1536 1533 1529 1531 1532 1532 1531 1530 1528 1527 1525 1523 1521 1519 1518 1516 1514 1511 1510 1507 1505 1501 1498 1496 1494 1493 1492 1490 1489 1488
1522 1525 1529 1531 1530 1528 1529 1531 1531 1530 1525 1525 1526 1526 1525 1524 1523 1522 1520 1518 1516 1514 1512 1510 1508 1506 1504 1502 1499 1495 1491 1488 1486 1484 1483 1482 1481 1479
1520 1521 1524 1524 1523 1524 1524 1525 1524 1525 1521 1519 1519 1519 1518 1518 1517 1515 1513 1511 1509 1506 1505 1503 1501 1499 1498 1496 1493 1490 1486 1482 1479 1477 1476 1475 1474 1473
1517 1518 1519 1518 1517 1519 1519 1518 1518 1517 1516 1511 1511 1511 1510 1510 1510 1508 1507 1505 1502 1500 1499 1497 1495 1493 1492 1489 1488 1485 1481 1478 1474 1471 1469 1468 1467 1467
1513 1513 1513 1513 1512 1513 1513 1511 1511 1510 1509 1506 1502 1502 1501 1502 1501 1500 1498 1496 1495 1493 1492 1491 1489 1487 1486 1484 1482 1479 1476 1473 1470 1467 1464 1462 1461 1459
1508 1509 1509 1508 1508 1507 1506 1506 1505 1504 1502 1500 1496 1494 1493 1493 1492 1491 1489 1488 1488 1487 1486 1484 1483 1481 1480 1478 1475 1472 1469 1467 1464 1462 1460 1458 1455 1452
1504 1504 1503 1503 1502 1502 1501 1500 1500 1498 1496 1494 1490 1487 1485 1484 1484 1483 1481 1480 1480 1478 1477 1476 1475 1474 1473 1471 1470 1468 1464 1461 1458 1456 1454 1451 1449 1447
1499 1499 1499 1499 1498 1497 1495 1494 1494 1491 1487 1485 1480 1478 1477 1477 1476 1474 1472 1472 1470 1471 1470 1468 1468 1466 1465 1464 1464 1462 1458 1455 1452 1449 1447 1444 1442 1441
1494 1494 1493 1492 1492 1490 1488 1486 1483 1481 1479 1475 1471 1469 1467 1467 1467 1465 1464 1463 1462 1463 1463 1460 1461 1459 1458 1458 1457 1455 1452 1449 1446 1443 1440 1437 1435 1434
1492 1491 1491 1489 1487 1484 1479 1475 1472 1469 1467 1465 1462 1459 1458 1458 1457 1456 1456 1455 1454 1454 1455 1453 1453 1452 1452 1451 1449 1447 1445 1443 1440 1436 1433 1431 1428 1426
1485 1484 1482 1480 1479 1475 1470 1465 1460 1457 1457 1456 1453 1450 1448 1447 1447 1447 1447 1447 1445 1445 1448 1447 1446 1445 1445 1443 1442 1441 1439 1437 1434 1431 1428 1424 1421 1419
1479 1477 1474 1472 1469 1467 1462 1457 1450 1447 1445 1443 1441 1439 1438 1436 1436 1437 1438 1437 1438 1437 1439 1441 1441 1440 1437 1436 1436 1435 1433 1431 1428 1425 1422 1419 1416 1413
1470 1467 1465 1463 1460 1456 1453 1448 1442 1438 1434 1431 1429 1427 1424 1422 1424 1425 1428 1429 1429 1429 1432 1434 1434 1434 1433 1430 1429 1429 1427 1424 1422 1419 1417 1414 1411 1409
1464 1461 1457 1454 1450 1446 1442 1438 1433 1429 1425 1421 1419 1416 1416 1417 1415 1416 1417 1419 1421 1423 1426 1428 1428 1428 1427 1425 1423 1422 1420 1418 1416 1413 1411 1409 1406 1403
1458 1455 1451 1448 1443 1438 1434 1431 1427 1422 1418 1414 1410 1408 1408 1408 1407 1409 1410 1412 1414 1416 1419 1421 1422 1422 1421 1420 1418 1416 1414 1412 1410 1409 1407 1404 1401 1398
1451 1448 1445 1441 1438 1434 1428 1425 1422 1418 1413 1408 1404 1401 1399 1399 1399 1400 1402 1406 1407 1409 1413 1415 1416 1417 1415 1416 1415 1412 1411 1409 1407 1405 1403 1400 1398 1394
1445 1443 1439 1437 1432 1427 1423 1419 1415 1411 1406 1402 1398 1394 1392 1391 1390 1391 1396 1399 1401 1403 1406 1409 1410 1410 1410 1411 1409 1408 1406 1405 1404 1402 1399 1396 1394 1392
1441 1438 1436 1433 1428 1423 1418 1413 1409 1404 1400 1395 1390 1387 1386 1387 1386 1387 1391 1393 1395 1398 1400 1403 1405 1406 1405 1405 1405 1403 1403 1401 1400 1398 1396 1393 1390 1389
1438 1435 1432 1429 1424 1420 1416 1412 1405 1400 1395 1389 1383 1380 1380 1381 1382 1384 1386 1388 1390 1392 1395 1398 1400 1401 1401 1400 1401 1401 1399 1398 1396 1395 1393 1391 1387 1385
1435 1432 1428 1424 1420 1416 1411 1407 1401 1395 1390 1383 1376 1372 1375 1376 1377 1379 1381 1383 1385 1387 1390 1392 1394 1396 1396 1396 1396 1396 1396 1394 1393 1392 1390 1388 1386 1383
1430 1427 1424 1419 1415 1411 1407 1403 1398 1392 1387 1380 1375 1366 1368 1372 1373 1375 1377 1378 1380 1382 1384 1387 1390 1391 1392 1392 1392 1392 1391 1390 1390 1389 1388 1386 1384 1382
1425 1422 1419 1414 1410 1406 1401 1398 1393 1388 1384 1379 1375 1370 1367 1370 1370 1371 1373 1374 1375 1377 1380 1383 1385 1386 1387 1388 1388 1388 1388 1387 1387 1386 1385 1385 1383 1381
1420 1417 1412 1408 1405 1402 1397 1393 1389 1385 1381 1377 1372 1370 1367 1364 1366 1367 1368 1369 1370 1373 1375 1379 1382 1382 1384 1384 1385 1385 1385 1384 1384 1383 1382 1381 1381 1380
Wind_Speed
29 26 25 20 15 17 22 21 20 24 25 23 22 17 19 20 21 22 26 28 30 33 35 33 34 35 33 33 31 30 31 30 28 27 27 28 29 29
29 27 21 20 21 17 15 20 25 27 28 22 19 19 19 22 25 25 27 30 32 33 31 31 32 34 36 35 33 31 30 29 28 26 25 25 26 26
24 17 17 20 19 18 20 23 23 25 27 26 23 25 25 25 23 24 28 30 33 28 28 34 33 35 33 31 31 29 26 25 25 23 23 23 24 24
18 17 20 21 19 20 23 24 26 27 28 32 30 30 33 27 28 29 29 31 33 33 31 30 30 27 27 30 33 27 25 24 22 22 23 23 23 23
18 22 19 18 17 21 26 29 28 29 31 32 36 37 36 29 30 31 29 30 28 28 26 23 21 25 31 32 28 27 27 25 23 24 20 20 21 22
19 19 21 21 23 28 28 25 27 30 29 32 37 39 33 32 32 29 29 29 30 27 25 27 31 27 27 24 24 28 29 27 23 25 27 29 29 25
18 21 22 21 18 18 21 26 28 31 36 37 35 34 34 31 29 27 23 23 26 22 26 26 28 24 25 29 26 27 28 28 27 27 30 31 30 22
20 15 12 15 17 20 24 27 29 34 37 38 41 41 38 34 30 29 28 29 30 32 24 29 27 28 30 27 23 24 27 28 30 29 30 31 29 24
12 14 17 20 20 25 28 32 35 36 36 39 42 41 41 41 41 31 30 31 33 23 24 27 29 33 23 23 24 27 29 29 29 26 24 24 26 28
14 16 19 21 22 24 29 33 37 37 37 38 40 39 37 35 36 36 31 30 28 31 30 32 28 26 24 25 26 26 25 24 26 27 26 25 26 27
20 22 24 27 29 32 36 40 43 44 42 40 40 42 39 37 34 31 30 30 34 35 32 27 26 25 23 22 24 27 21 25 25 26 27 27 24 23
25 27 28 30 33 34 37 41 46 47 43 42 41 38 38 38 38 36 34 33 39 36 33 24 23 24 24 27 20 15 23 24 25 23 23 21 19 21
28 30 31 31 33 34 35 38 42 44 48 50 48 45 35 35 36 36 33 30 36 37 27 21 22 22 20 26 29 27 23 24 22 22 22 20 17 19
29 30 31 32 34 34 32 29 29 29 33 37 35 39 41 39 30 26 33 33 27 25 17 14 20 21 23 27 32 26 25 20 22 20 17 18 20 17
27 29 30 31 30 30 31 31 30 31 31 32 32 32 32 33 32 31 27 25 26 25 21 19 23 25 25 27 28 29 23 23 16 13 19 17 18 16
27 28 28 26 27 31 30 31 31 31 32 30 34 33 30 31 31 28 26 26 30 28 23 27 29 27 22 22 20 20 17 19 17 17 20 17 16 15
27 26 24 24 30 32 32 30 31 29 33 33 30 33 29 30 34 23 20 26 29 26 25 23 18 16 19 16 19 19 21 20 16 19 19 15 12 14
22 21 22 26 28 30 31 32 31 32 31 33 31 31 26 23 19 16 18 24 27 25 23 20 17 15 15 16 18 21 17 14 17 16 11 16 14 8
18 18 21 25 28 29 29 30 32 33 32 32 32 26 24 23 17 18 20 21 27 26 22 15 16 16 17 18 14 16 15 15 14 11 12 13 15 9
16 19 22 24 25 27 29 29 32 32 33 32 31 19 22 20 17 19 19 23 26 24 23 16 19 17 17 17 18 19 19 19 12 10 12 13 9 8
17 21 23 24 26 27 29 29 29 31 32 30 30 19 14 15 16 16 18 23 24 23 23 16 16 17 17 18 20 20 7 12 10 9 12 12 12 6
20 22 23 25 26 28 28 28 29 29 29 28 27 22 8 13 13 15 16 19 25 23 21 15 14 15 16 16 11 9 11 10 11 12 10 10 10 9
24 20 24 26 25 26 27 27 26 28 27 27 26 25 17 9 7 14 17 21 23 21 19 19 16 13 11 10 11 12 9 8 11 12 11 9 9 8
Wind_Direction
243 244 247 244 261 281 256 248 253 261 262 261 261 268 272 270 272 280 277 281 284 293 301 305 307 306 308 310 307 301 297 295 292 289 286 283 282 280
250 253 254 274 285 270 234 248 250 259 267 267 264 269 272 279 276 272 277 282 285 289 297 300 301 301 305 308 308 305 302 299 295 289 288 286 281 280
253 251 269 283 286 239 239 248 254 258 264 269 264 263 266 273 276 271 275 281 285 290 293 298 294 297 305 305 310 310 309 313 306 289 284 282 282 283
252 260 283 284 274 243 251 256 258 258 263 270 273 269 280 270 275 275 278 279 282 282 286 288 296 302 300 302 309 309 314 317 317 306 286 282 280 281
265 280 286 288 268 257 257 255 259 267 265 266 270 276 279 274 267 275 277 279 278 279 286 289 287 293 297 300 301 307 307 307 308 304 303 295 290 285
277 277 291 290 279 269 273 269 269 273 274 271 271 275 270 267 269 275 273 270 275 274 274 272 284 292 292 293 301 304 303 301 292 296 302 302 300 293
286 291 292 293 290 284 277 276 275 272 272 273 276 278 271 268 263 271 270 269 275 276 275 280 289 288 278 282 291 293 295 297 301 298 297 297 293 288
290 294 299 300 296 291 287 286 282 280 281 280 281 277 272 273 271 270 273 275 275 275 272 281 283 275 280 291 291 292 292 296 300 300 296 290 284 281
302 298 286 281 277 276 279 281 281 279 279 280 277 280 280 278 272 270 280 275 277 270 269 270 274 282 286 287 286 281 285 292 297 300 305 298 287 281
287 287 290 291 291 291 287 284 282 283 284 279 278 278 278 278 276 276 281 276 265 263 268 276 283 282 285 284 291 290 296 297 303 305 304 303 298 290
287 286 283 284 282 281 280 281 281 281 284 284 277 278 278 278 276 271 268 261 260 263 275 274 275 279 285 282 283 297 287 301 304 302 303 301 296 296
300 298 297 296 295 293 290 288 286 283 285 283 280 275 273 269 268 268 271 256 256 267 278 271 265 273 284 284 296 277 302 302 306 307 310 304 301 300
308 310 309 310 308 307 303 297 293 291 286 283 280 277 279 258 266 266 267 262 260 263 270 266 262 276 275 288 292 294 297 301 307 306 308 310 305 304
311 312 315 316 316 315 316 324 325 312 297 293 290 285 282 278 264 260 273 260 254 253 262 238 255 270 276 287 294 299 300 303 308 304 308 314 314 310
314 317 318 318 317 320 323 324 321 316 310 306 294 290 281 276 274 274 256 265 252 248 256 256 256 262 271 284 293 296 301 311 312 313 314 321 322 307
317 319 321 325 322 318 315 311 309 314 309 311 296 296 291 282 267 246 244 255 242 241 243 249 257 268 268 275 296 303 312 301 317 320 310 312 321 328
319 322 330 321 318 321 321 322 322 308 312 305 314 293 289 280 255 234 251 257 245 244 247 257 262 263 269 277 293 304 304 301 302 303 301 302 316 321
321 329 319 316 318 321 323 322 327 323 320 319 305 303 273 273 264 259 247 249 241 240 248 254 253 257 266 277 290 291 295 286 293 305 321 310 310 307
316 315 312 314 316 319 321 322 323 325 326 330 320 297 270 272 254 247 251 250 241 243 244 245 241 244 253 270 283 284 290 284 292 308 314 314 318 330
311 309 306 308 313 315 316 322 323 325 332 335 337 276 259 257 240 249 252 249 247 241 238 244 235 244 251 269 273 277 288 281 283 288 311 343 335 359
306 301 306 311 312 313 316 319 322 323 330 334 341 354 251 251 246 250 257 253 249 242 233 237 231 245 248 261 271 288 305 310 305 295 313 322 346 324
300 302 308 309 312 313 314 316 318 323 328 332 330 350 325 267 253 258 260 256 245 239 232 229 239 244 253 274 273 292 297 293 306 304 296 301 314 327
302 306 302 307 309 311 311 314 315 319 323 325 325 326 345 16 287 277 265 260 245 230 232 221 221 244 260 266 261 273 296 288 293 297 293 298 292 313